TimePDT,TemperatureF,Dew PointF,Humidity,Sea Level PressureIn,VisibilityMPH,Wind Direction,Wind SpeedMPH,Gust SpeedMPH,PrecipitationIn,Events,Conditions,WindDirDegrees,DateUTC
12:56 AM,36.0,33.1,89,29.72,10.0,Calm,Calm,-,0.00,Rain,Light Rain,0,2012-10-22 07:56:00
1:56 AM,36.0,34.0,93,29.69,10.0,East,3.5,-,0.00,Rain,Light Rain,80,2012-10-22 08:56:00
2:56 AM,36.0,34.0,93,29.65,10.0,NE,3.5,-,0.01,,Overcast,40,2012-10-22 09:56:00
4:56 AM,36.0,34.0,93,29.60,10.0,NNW,4.6,-,0.00,Rain,Light Rain,340,2012-10-22 11:56:00
5:41 AM,35.6,35.6,100,29.57,9.0,West,4.6,-,0.00,Rain,Light Rain,280,2012-10-22 12:41:00
7:56 AM,36.0,34.0,93,29.56,10.0,Calm,Calm,-,0.03,Rain,Light Rain,0,2012-10-22 14:56:00
8:56 AM,36.0,34.0,93,29.55,10.0,SW,3.5,-,0.01,Rain,Light Rain,220,2012-10-22 15:56:00
9:56 AM,35.1,33.1,92,29.56,10.0,South,3.5,-,0.04,Rain,Light Rain,180,2012-10-22 16:56:00
10:56 AM,37.0,35.1,93,29.57,10.0,WSW,3.5,-,0.00,,Overcast,240,2012-10-22 17:56:00
11:03 AM,37.4,35.6,93,29.53,10.0,Calm,Calm,-,N/A,,Mostly Cloudy,0,2012-10-22 18:03:00
11:56 AM,39.9,36.0,86,29.55,10.0,ENE,3.5,-,N/A,,Mostly Cloudy,70,2012-10-22 18:56:00
12:54 PM,42.8,35.6,76,29.55,10.0,North,4.6,-,N/A,,Mostly Cloudy,350,2012-10-22 19:54:00
12:56 PM,43.0,35.1,74,29.56,10.0,North,5.8,-,N/A,,Mostly Cloudy,10,2012-10-22 19:56:00
12:58 PM,42.8,35.6,76,29.54,10.0,NNE,5.8,-,N/A,,Mostly Cloudy,30,2012-10-22 19:58:00
1:56 PM,43.0,33.1,68,29.58,10.0,Calm,Calm,-,N/A,,Mostly Cloudy,0,2012-10-22 20:56:00
2:56 PM,45.0,30.9,58,29.59,10.0,SW,4.6,-,0.00,,Mostly Cloudy,220,2012-10-22 21:56:00
3:03 PM,44.6,33.8,66,29.58,10.0,WNW,6.9,17.3,N/A,,Mostly Cloudy,290,2012-10-22 22:03:00
4:56 PM,44.1,30.9,60,29.63,10.0,NNW,8.1,-,N/A,,Scattered Clouds,340,2012-10-22 23:56:00
5:56 PM,39.9,28.9,65,29.65,10.0,ENE,4.6,-,N/A,,Clear,70,2012-10-23 00:56:00
6:56 PM,39.0,25.0,57,29.65,10.0,South,5.8,-,N/A,,Clear,190,2012-10-23 01:56:00
7:56 PM,36.0,25.0,64,29.68,10.0,SSW,4.6,-,N/A,,Partly Cloudy,210,2012-10-23 02:56:00
8:56 PM,37.0,27.0,67,29.67,10.0,Calm,Calm,-,N/A,,Scattered Clouds,0,2012-10-23 03:56:00
9:56 PM,35.1,25.0,67,29.69,10.0,SSE,8.1,-,N/A,,Scattered Clouds,160,2012-10-23 04:56:00
10:56 PM,34.0,25.0,70,29.68,10.0,South,6.9,-,N/A,,Scattered Clouds,170,2012-10-23 05:56:00
11:56 PM,33.1,25.0,72,29.68,10.0,Calm,Calm,-,N/A,,Overcast,0,2012-10-23 06:56:00